Location: Archemont
(49.1579°N, 1.7598°E)
Time: 11:53:33
(UTC+00:00)

Vanguard 3 - Pass Details

Date: 22 April 2024
Orbit: 509 x 3233 km, 33.3° (Epoch: 25 May)

Event Time Altitude Azimuth Distance (km) Brightness Sun altitude
Exits shadow 00:48:28 13° 147° (SSE) 5,084 10.8 -27.3°
Maximum altitude 00:48:32 13° 147° (SSE) 5,079 10.8 -27.3°
Drops below altitude 10° 00:53:57 10° 124° (SE) 4,901 10.9 -27.0°
Sets 01:00:11 0° 100° (E) 5,295 11.4 -26.7°
